Weather History for KCUT - August, 2013

Change the Weather History Date:

Saturday, August 3, 2013

  Actual Average Record
Temperature  
Mean Temperature 59 °F 66 °F  
Max Temperature 70 °F 79 °F 92 °F (1947)
Min Temperature 47 °F 52 °F 32 °F (1978)
Degree Days  
Heating Degree Days 6 2  
Month to date heating degree days 12 6  
Since 1 June heating degree days 247 287  
Since 1 July heating degree days 54 67  
Cooling Degree Days 0 2  
Month to date cooling degree days 0 6  
Year to date cooling degree days 74 113  
Since 1 June cooling degree days 72 112  
Growing Degree Days 8 (Base 50)    
Moisture  
Dew Point 55 °F    
Average Humidity 81    
Maximum Humidity 100    
Minimum Humidity 61    
Precipitation  
Precipitation 1.05 in 0.07 in 1.86 in (2011)
Month to date precipitation 1.21 0.19  
Year to date precipitation 13.21 12.96  
Sea Level Pressure  
Sea Level Pressure 30.16 in    
Wind  
Wind Speed 6 mph (SE)    
Max Wind Speed 22 mph    
Max Gust Speed 29 mph    
Visibility 7 miles    
Events Fog , Rain    
T = Trace of Precipitation, MM = Missing Value Source: NWS Daily Summary

Daily Weather History Graph

Daily Weather History Graph

Search for Another Location

Airport or City:

Trip Planner

Search our weather history database for the weather conditions in past years. The results will help you decide how hot, cold, wet, or windy it might be!

Date:

Astronomy

Aug. 03, 2013 Rise Set
Actual Time 5:45 AM MDT 8:14 PM MDT
Civil Twilight 5:13 AM MDT 8:47 PM MDT
Nautical Twilight 4:32 AM MDT 9:27 PM MDT
Astronomical Twilight 3:46 AM MDT 10:12 PM MDT
Moon 2:55 AM MDT (8/3) 5:59 PM MDT (8/3)
Length of Visible Light 15h 33m
Length of Day
14h 28m
Waning Crescent, 9% of the Moon is Illuminated
Aug 3
Waning Crescent
Aug 6
New
Aug 14
First Quarter
Aug 20
Full
Aug 28
Last Quarter

Hourly Weather History & Observations

Time (MDT) Temp. Windchill Dew Point Humidity Pressure Visibility Wind Dir Wind Speed Gust Speed Precip Events Conditions
12:12 AM 55.4 °F - 55.4 °F 100% 30.18 in 0.5 mi ENE 4.6 mph - N/A Fog Fog
12:38 AM 55.4 °F - 55.4 °F 100% 30.17 in 0.2 mi East 8.1 mph - N/A Fog Fog
12:53 AM 55.9 °F - 55.9 °F 100% 30.05 in 0.2 mi ENE 6.9 mph - N/A Fog Fog
1:10 AM 55.4 °F - 55.4 °F 100% 30.20 in 0.5 mi NE 9.2 mph - N/A Fog Fog
1:37 AM 55.4 °F - 55.4 °F 100% 30.19 in 1.8 mi Variable 6.9 mph 21.9 mph 0.00 in Rain Light Rain
1:40 AM 55.4 °F - 55.4 °F 100% 30.18 in 3.0 mi Variable 5.8 mph 16.1 mph 0.00 in Rain Light Rain
1:53 AM 55.9 °F - 55.9 °F 100% 30.07 in 7.0 mi WNW 4.6 mph - 0.01 in Rain Light Rain
2:23 AM 55.4 °F - 55.4 °F 100% 30.20 in 8.0 mi Variable 4.6 mph - 0.02 in Rain Light Rain
2:31 AM 55.4 °F - 55.4 °F 100% 30.19 in 5.0 mi SSE 4.6 mph - 0.06 in Rain Rain
2:53 AM 57.0 °F - 55.9 °F 96% 30.00 in 5.0 mi East 9.2 mph - 0.13 in Rain Heavy Rain
3:21 AM 57.2 °F - 57.2 °F 100% 30.16 in 10.0 mi Variable 6.9 mph - 0.01 in   Scattered Clouds
3:30 AM 57.2 °F - 55.4 °F 94% 30.17 in 9.0 mi North 13.8 mph 19.6 mph 0.01 in   Mostly Cloudy
3:41 AM 55.4 °F - 53.6 °F 94% 30.22 in 4.0 mi NNW 16.1 mph 28.8 mph 0.01 in Rain Light Rain
3:43 AM 53.6 °F - 51.8 °F 94% 30.25 in 1.8 mi North 21.9 mph 28.8 mph 0.01 in Rain Rain
3:51 AM 46.4 °F 41.9 °F 46.4 °F 100% 30.21 in 0.8 mi NE 9.2 mph 28.8 mph 0.55 in Rain Heavy Rain
3:53 AM 46.9 °F - 46.0 °F 97% 30.08 in 1.0 mi Variable 6.9 mph 25.3 mph 0.63 in Rain Heavy Rain
3:58 AM 48.2 °F - 46.4 °F 93% 30.20 in 3.0 mi ESE 9.2 mph - 0.03 in Rain Light Rain
4:53 AM 50.0 °F - 50.0 °F 100% 30.07 in 3.0 mi NE 8.1 mph - 0.12 in Rain Heavy Rain
5:07 AM 50.0 °F - 50.0 °F 100% 30.20 in 1.8 mi SSE 5.8 mph - 0.10 in Rain Heavy Rain
5:16 AM 51.8 °F - 50.0 °F 94% 30.20 in 3.0 mi Calm Calm - 0.16 in Rain Light Rain
5:44 AM 51.8 °F - 50.0 °F 94% 30.21 in 2.0 mi Calm Calm - 0.16 in   Mostly Cloudy
5:53 AM 50.0 °F - 50.0 °F 100% 30.07 in 3.0 mi Calm Calm - 0.16 in   Mostly Cloudy
6:02 AM 50.0 °F - 48.2 °F 94% 30.22 in 2.0 mi North 3.5 mph - N/A   Mostly Cloudy
6:12 AM 50.0 °F - 50.0 °F 100% 30.22 in 3.0 mi Calm Calm - N/A   Overcast
6:27 AM 51.8 °F - 51.8 °F 100% 30.21 in 1.8 mi NNE 3.5 mph - N/A   Overcast
6:43 AM 51.8 °F - 51.8 °F 100% 30.22 in 3.0 mi Calm Calm - N/A   Overcast
6:53 AM 53.1 °F - 52.0 °F 96% 30.08 in 5.0 mi Calm Calm - N/A   Overcast
7:53 AM 55.9 °F - 54.0 °F 93% 30.08 in 7.0 mi Calm Calm - N/A   Mostly Cloudy
8:53 AM 60.1 °F - 54.0 °F 80% 30.10 in 10.0 mi Calm Calm - N/A   Scattered Clouds
9:32 AM 60.8 °F - 53.6 °F 77% 30.25 in 10.0 mi NE 4.6 mph - N/A   Mostly Cloudy
9:53 AM 61.0 °F - 53.1 °F 75% 30.11 in 10.0 mi Calm Calm - N/A   Overcast
10:43 AM 62.6 °F - 51.8 °F 68% 30.28 in 10.0 mi South 4.6 mph - N/A   Overcast
10:53 AM 62.1 °F - 52.0 °F 70% 30.13 in 10.0 mi South 4.6 mph - N/A   Overcast
11:13 AM 62.6 °F - 53.6 °F 72% 30.28 in 10.0 mi SE 5.8 mph - N/A   Overcast
11:53 AM 64.0 °F - 53.1 °F 67% 30.13 in 10.0 mi ESE 9.2 mph - N/A   Overcast
12:37 PM 64.4 °F - 53.6 °F 68% 30.28 in 10.0 mi Variable 5.8 mph - N/A   Overcast
12:53 PM 64.9 °F - 53.1 °F 65% 30.12 in 10.0 mi SSE 9.2 mph - N/A   Overcast
1:41 PM 66.2 °F - 55.4 °F 68% 30.28 in 10.0 mi South 9.2 mph - N/A   Overcast
1:51 PM 66.2 °F - 55.4 °F 68% 30.28 in 10.0 mi SE 10.4 mph 16.1 mph N/A   Overcast
1:53 PM 66.0 °F - 55.0 °F 68% 30.13 in 10.0 mi SE 11.5 mph 16.1 mph N/A   Overcast
2:53 PM 66.9 °F - 55.0 °F 66% 30.10 in 10.0 mi SSE 9.2 mph 18.4 mph N/A   Partly Cloudy
3:53 PM 69.1 °F - 55.9 °F 63% 30.10 in 10.0 mi ESE 10.4 mph 17.3 mph N/A   Partly Cloudy
4:53 PM 68.0 °F - 57.0 °F 68% 30.10 in 10.0 mi ESE 9.2 mph - N/A   Mostly Cloudy
5:00 PM 68.0 °F - 57.2 °F 68% 30.24 in 10.0 mi SE 8.1 mph 16.1 mph N/A   Mostly Cloudy
5:12 PM 68.0 °F - 57.2 °F 68% 30.24 in 10.0 mi ESE 17.3 mph 21.9 mph N/A   Mostly Cloudy
5:30 PM 68.0 °F - 57.2 °F 68% 30.24 in 10.0 mi ESE 9.2 mph 17.3 mph N/A   Scattered Clouds
5:53 PM 68.0 °F - 57.9 °F 70% 30.08 in 10.0 mi ESE 10.4 mph 18.4 mph N/A   Mostly Cloudy
6:11 PM 66.2 °F - 59.0 °F 78% 30.22 in 10.0 mi ESE 8.1 mph - N/A   Mostly Cloudy
6:31 PM 66.2 °F - 57.2 °F 73% 30.23 in 10.0 mi SE 9.2 mph - N/A   Scattered Clouds
6:53 PM 66.0 °F - 57.9 °F 75% 30.07 in 10.0 mi SSE 9.2 mph - N/A   Partly Cloudy
7:14 PM 66.2 °F - 57.2 °F 73% 30.23 in 10.0 mi SSE 8.1 mph - N/A   Mostly Cloudy
7:53 PM 66.0 °F - 59.0 °F 78% 30.07 in 10.0 mi Variable 5.8 mph 16.1 mph N/A   Overcast
8:45 PM 64.4 °F - 59.0 °F 83% 30.19 in 10.0 mi South 6.9 mph - N/A   Mostly Cloudy
8:53 PM 63.0 °F - 59.0 °F 87% 30.00 in 10.0 mi SSE 10.4 mph 18.4 mph N/A   Partly Cloudy
9:45 PM 62.6 °F - 59.0 °F 88% 30.21 in 10.0 mi Variable 6.9 mph - N/A   Mostly Cloudy
9:53 PM 62.1 °F - 59.0 °F 90% 30.05 in 10.0 mi SE 5.8 mph - N/A   Mostly Cloudy
10:22 PM 60.8 °F - 59.0 °F 94% 30.21 in 7.0 mi South 9.2 mph 23.0 mph N/A   Overcast
10:53 PM 61.0 °F - 60.1 °F 97% 30.06 in 7.0 mi South 8.1 mph 17.3 mph N/A   Overcast
11:45 PM 60.8 °F - 60.8 °F 100% 30.22 in 9.0 mi SSW 5.8 mph - N/A   Overcast
11:51 PM 60.8 °F - 60.8 °F 100% 30.22 in 9.0 mi SSW 5.8 mph - N/A   Overcast
11:53 PM 61.0 °F - 60.1 °F 97% 30.05 in 9.0 mi SSW 8.1 mph - N/A   Overcast